This is the latest recevied weather packets stored in our database for station/object KM4LTG. If no packets are shown the sender has not sent any weather packets the latest 1 day(s).
| Time | Temp. | Humidity | Pressure | Rain* | Wind** | Luminosity | Snow |
|---|---|---|---|---|---|---|---|
| 1778009265 | 29.44° C | 60% | 1015.7 hPa | 0 mm | 0.89 m/s, 292° | - | - |
| 1778008990 | 29.44° C | 60% | 1015.7 hPa | 0 mm | 1.34 m/s, 292° | - | - |
| 1778008715 | 29.44° C | 59% | 1015.9 hPa | 0 mm | 0.89 m/s, 292° | - | - |
| 1778008440 | 30.56° C | 57% | 1015.7 hPa | 0 mm | 0.89 m/s, 270° | - | - |
| 1778008192 | 30° C | 45% | 1015.7 hPa | 0 mm | 0.45 m/s, 315° | - | - |
| 1778007895 | 30° C | 45% | 1015.8 hPa | 0 mm | 0.89 m/s, 68° | - | - |
| 1778007653 | 30° C | 45% | 1015.8 hPa | 0 mm | 0.89 m/s, 68° | - | - |
| 1778007371 | 30° C | 42% | 1015.8 hPa | 0 mm | 1.79 m/s, 68° | - | - |
| 1778007074 | 30° C | 44% | 1015.9 hPa | 0 mm | 0.89 m/s, 68° | - | - |
| 1778006785 | 30.56° C | 43% | 1015.8 hPa | 0 mm | 1.34 m/s, 135° | - | - |
| 1778006514 | 30.56° C | 44% | 1016 hPa | 0 mm | 1.34 m/s, 135° | - | - |
| 1778006240 | 30° C | 48% | 1016.1 hPa | 0 mm | 1.34 m/s, 135° | - | - |
| 1778005974 | 30° C | 47% | 1016.1 hPa | 0 mm | 1.34 m/s, 68° | - | - |
| 1778005725 | 30° C | 47% | 1016 hPa | 0 mm | 2.24 m/s, 90° | - | - |
| 1778005470 | 30° C | 48% | 1016.1 hPa | 0 mm | 1.34 m/s, 135° | - | - |
| 1778005209 | 30° C | 47% | 1016.2 hPa | 0 mm | 1.34 m/s, 112° | - | - |
| 1778004915 | 30° C | 49% | 1016.3 hPa | 0 mm | 0.89 m/s, 135° | - | - |
| 1778004660 | 30° C | 49% | 1016.3 hPa | 0 mm | 0.89 m/s, 135° | - | - |
| 1778004410 | 29.44° C | 51% | 1016.4 hPa | 0 mm | 0.89 m/s, 90° | - | - |
| 1778004140 | 30° C | 52% | 1016.4 hPa | 0 mm | 1.34 m/s, 158° | - | - |
| 1778003865 | 29.44° C | 51% | 1016.5 hPa | 0 mm | 1.79 m/s, 158° | - | - |
| 1778003570 | 29.44° C | 51% | 1016.6 hPa | 0 mm | 1.34 m/s, 112° | - | - |
| 1778003304 | 29.44° C | 52% | 1016.7 hPa | 0 mm | 1.34 m/s, 135° | - | - |
| 1778003053 | 29.44° C | 56% | 1016.7 hPa | 0 mm | 0.89 m/s, 68° | - | - |
| 1778002775 | 29.44° C | 54% | 1016.8 hPa | 0 mm | 1.79 m/s, 180° | - | - |
* Rain latest hour (hover to see other rain measurements)
** Current wind speed in m/s (hover to see current wind gust speed)